Location: East Guldeford
(50.9500°N, 0.7500°E)
Time: 18:38:15
(UTC+00:00)

ERS-1 Rocket - Pass Details

Date: 12 May 2021
Orbit: 754 x 757 km, 98.4° (Epoch: 15 June)

Event Time Altitude Azimuth Distance (km) Brightness Sun altitude
Exits shadow 21:30:08 18° 168° (SSE) 1,776 4.3 -13.9°
Maximum altitude 21:33:53 82° 254° (WSW) 770 3.0 -14.2°
Drops below altitude 10° 21:38:57 10° 344° (NNW) 2,295 6.7 -14.7°
Sets 21:41:16 0° 345° (NNW) 3,225 7.7 -14.9°
